When you browse on this site, cookies collect data to enhance your experience and personalize the content and advertising you see.
Visit our Privacy Policy to learn more. By continuing to use the site, you agree to this use of cookies and data.
  • In Schweiz
  • Länderverzeichnis
  • Für 7 Tage
  • Wassertemperatur
  • Wetterkarte
  • Widgets
  • user-avatar
    Anmelden

    Stündliche Wetter Landau in der Pfalz

    Heute, 4 Juni, Donnerstag

    Zeit Temperatur Niederschläge Wind Luftdruck Luftfeuchtigkeit
    00:00 +18°C° 0 mm 1 m/S 735 mmHg 82%
    01:00 +18°C° 0 mm 1 m/S 735 mmHg 86%
    02:00 +16°C° 0.4 mm 2 m/S 734 mmHg 87%
    03:00 +16°C° 0.4 mm 2 m/S 734 mmHg 88%
    04:00 +16°C° 0.4 mm 3 m/S 733 mmHg 89%
    05:00 +16°C° 0 mm 3 m/S 733 mmHg 89%
    06:00 +16°C° 0 mm 3 m/S 733 mmHg 89%
    07:00 +16°C° 0 mm 2 m/S 733 mmHg 88%
    08:00 +17°C° 0.4 mm 3 m/S 733 mmHg 85%
    09:00 +18°C° 0.4 mm 3 m/S 733 mmHg 82%
    10:00 +19°C° 0.4 mm 4 m/S 733 mmHg 80%
    11:00 +18°C° 1 mm 4 m/S 733 mmHg 81%
    12:00 +18°C° 1 mm 4 m/S 732 mmHg 82%
    13:00 +18°C° 1 mm 3 m/S 732 mmHg 84%
    14:00 +18°C° 0.9 mm 3 m/S 732 mmHg 83%
    15:00 +18°C° 0.9 mm 3 m/S 732 mmHg 81%
    16:00 +19°C° 0.9 mm 3 m/S 732 mmHg 80%
    17:00 +18°C° 0.7 mm 3 m/S 732 mmHg 82%
    18:00 +17°C° 0.7 mm 3 m/S 732 mmHg 84%
    19:00 +16°C° 0.7 mm 3 m/S 732 mmHg 85%
    20:00 +14°C° 0.4 mm 3 m/S 732 mmHg 87%
    21:00 +13°C° 0.4 mm 3 m/S 733 mmHg 88%
    22:00 +12°C° 0.4 mm 3 m/S 733 mmHg 89%
    23:00 +11°C° 0 mm 3 m/S 733 mmHg 89%

    Morgen, 5 Juni, Freitag

    Zeit Temperatur Niederschläge Wind Luftdruck Luftfeuchtigkeit
    00:00 +10°C° 0 mm 2 m/S 734 mmHg 90%
    01:00 +10°C° 0 mm 2 m/S 734 mmHg 91%
    02:00 +9°C° 0 mm 2 m/S 734 mmHg 91%
    03:00 +9°C° 0 mm 2 m/S 734 mmHg 92%
    04:00 +8°C° 0 mm 2 m/S 735 mmHg 92%
    05:00 +9°C° 0 mm 2 m/S 735 mmHg 90%
    06:00 +10°C° 0 mm 2 m/S 735 mmHg 88%
    07:00 +10°C° 0 mm 3 m/S 735 mmHg 86%
    08:00 +11°C° 0.1 mm 3 m/S 735 mmHg 82%
    09:00 +12°C° 0.1 mm 4 m/S 735 mmHg 78%
    10:00 +13°C° 0.1 mm 4 m/S 735 mmHg 74%
    11:00 +14°C° 0.2 mm 5 m/S 734 mmHg 69%
    12:00 +15°C° 0.2 mm 7 m/S 734 mmHg 64%
    13:00 +17°C° 0.2 mm 8 m/S 734 mmHg 59%
    14:00 +15°C° 0.4 mm 7 m/S 734 mmHg 68%
    15:00 +12°C° 0.4 mm 7 m/S 734 mmHg 77%
    16:00 +11°C° 0.4 mm 7 m/S 734 mmHg 86%
    17:00 +11°C° 1.1 mm 7 m/S 734 mmHg 88%
    18:00 +11°C° 1.1 mm 6 m/S 734 mmHg 90%
    19:00 +11°C° 1.1 mm 6 m/S 734 mmHg 92%
    20:00 +10°C° 0.4 mm 5 m/S 735 mmHg 91%
    21:00 +10°C° 0.4 mm 5 m/S 735 mmHg 90%
    22:00 +10°C° 0.4 mm 5 m/S 736 mmHg 89%
    23:00 +10°C° 0 mm 4 m/S 736 mmHg 89%

    übermorgen, 6 Juni, Samstag

    Zeit Temperatur Niederschläge Wind Luftdruck Luftfeuchtigkeit
    00:00 +10°C° 0 mm 4 m/S 737 mmHg 89%
    01:00 +9°C° 0 mm 3 m/S 737 mmHg 89%
    02:00 +9°C° 0.3 mm 3 m/S 737 mmHg 90%
    03:00 +9°C° 0.3 mm 3 m/S 737 mmHg 91%
    04:00 +9°C° 0.3 mm 2 m/S 737 mmHg 92%
    05:00 +10°C° 1.1 mm 2 m/S 737 mmHg 93%
    06:00 +10°C° 1.1 mm 2 m/S 737 mmHg 94%
    07:00 +10°C° 1.1 mm 2 m/S 737 mmHg 94%
    08:00 +10°C° 0.5 mm 2 m/S 737 mmHg 94%
    09:00 +11°C° 0.5 mm 3 m/S 737 mmHg 93%
    10:00 +11°C° 0.5 mm 3 m/S 737 mmHg 93%
    11:00 +13°C° 0.3 mm 4 m/S 737 mmHg 83%
    12:00 +14°C° 0.3 mm 5 m/S 737 mmHg 74%
    13:00 +16°C° 0.3 mm 6 m/S 737 mmHg 64%
    14:00 +16°C° 0.1 mm 6 m/S 737 mmHg 61%
    15:00 +17°C° 0.1 mm 6 m/S 737 mmHg 59%
    16:00 +17°C° 0.1 mm 6 m/S 737 mmHg 56%
    17:00 +16°C° 0.1 mm 5 m/S 737 mmHg 59%
    18:00 +16°C° 0.1 mm 5 m/S 738 mmHg 63%
    19:00 +15°C° 0.1 mm 4 m/S 738 mmHg 66%
    20:00 +14°C° 0 mm 4 m/S 739 mmHg 71%
    21:00 +12°C° 0 mm 3 m/S 739 mmHg 75%
    22:00 +11°C° 0 mm 3 m/S 740 mmHg 79%
    23:00 +10°C° 0 mm 3 m/S 740 mmHg 81%

    7 Juni, Sonntag

    Zeit Temperatur Niederschläge Wind Luftdruck Luftfeuchtigkeit
    00:00 +10°C° 0 mm 2 m/S 740 mmHg 84%
    01:00 +9°C° 0 mm 2 m/S 741 mmHg 87%
    02:00 +8°C° 0 mm 2 m/S 741 mmHg 88%
    03:00 +8°C° 0 mm 2 m/S 741 mmHg 89%
    04:00 +7°C° 0 mm 2 m/S 741 mmHg 91%
    05:00 +8°C° 0 mm 2 m/S 742 mmHg 86%
    06:00 +9°C° 0 mm 3 m/S 742 mmHg 81%
    07:00 +10°C° 0 mm 3 m/S 742 mmHg 76%
    08:00 +12°C° 0 mm 3 m/S 742 mmHg 70%
    09:00 +13°C° 0 mm 3 m/S 743 mmHg 63%
    10:00 +16°C° 0 mm 3 m/S 743 mmHg 57%
    11:00 +17°C° 0 mm 3 m/S 743 mmHg 55%
    12:00 +18°C° 0 mm 3 m/S 742 mmHg 53%
    13:00 +18°C° 0 mm 2 m/S 742 mmHg 51%
    14:00 +19°C° 0 mm 2 m/S 742 mmHg 50%
    15:00 +19°C° 0 mm 2 m/S 742 mmHg 50%
    16:00 +20°C° 0 mm 1 m/S 742 mmHg 49%
    17:00 +20°C° 0 mm 1 m/S 742 mmHg 54%
    18:00 +19°C° 0 mm 1 m/S 742 mmHg 58%
    19:00 +19°C° 0 mm 1 m/S 742 mmHg 63%
    20:00 +16°C° 0 mm 1 m/S 742 mmHg 66%
    21:00 +15°C° 0 mm 1 m/S 743 mmHg 69%
    22:00 +13°C° 0 mm 1 m/S 743 mmHg 73%
    23:00 +13°C° 0 mm 1 m/S 743 mmHg 75%

    8 Juni, Montag

    Zeit Temperatur Niederschläge Wind Luftdruck Luftfeuchtigkeit
    00:00 +13°C° 0 mm 1 m/S 743 mmHg 76%
    01:00 +12°C° 0 mm 1 m/S 743 mmHg 78%
    02:00 +12°C° 0 mm 1 m/S 743 mmHg 81%
    03:00 +11°C° 0 mm 1 m/S 743 mmHg 84%
    04:00 +10°C° 0 mm 1 m/S 743 mmHg 87%
    05:00 +12°C° 0 mm 1 m/S 743 mmHg 84%
    06:00 +13°C° 0 mm 1 m/S 744 mmHg 80%
    07:00 +14°C° 0 mm 1 m/S 744 mmHg 77%
    08:00 +15°C° 0.1 mm 2 m/S 744 mmHg 71%
    09:00 +17°C° 0.1 mm 2 m/S 744 mmHg 64%
    10:00 +19°C° 0.1 mm 2 m/S 744 mmHg 58%
    11:00 +19°C° 0.3 mm 2 m/S 744 mmHg 57%
    12:00 +20°C° 0.3 mm 2 m/S 743 mmHg 56%
    13:00 +21°C° 0.3 mm 2 m/S 743 mmHg 55%
    14:00 +20°C° 0.4 mm 2 m/S 743 mmHg 58%
    15:00 +20°C° 0.4 mm 2 m/S 743 mmHg 60%
    16:00 +20°C° 0.4 mm 2 m/S 743 mmHg 62%
    17:00 +20°C° 0.5 mm 1 m/S 743 mmHg 67%
    18:00 +19°C° 0.5 mm 1 m/S 743 mmHg 72%
    19:00 +17°C° 0.5 mm 0 m/S 743 mmHg 77%
    20:00 +18°C° 0 mm 1 m/S 743 mmHg 79%
    21:00 +15°C° 0 mm 1 m/S 744 mmHg 81%
    22:00 +14°C° 0 mm 1 m/S 744 mmHg 82%
    23:00 +14°C° 0 mm 1 m/S 744 mmHg 83%

    9 Juni, Dienstag

    Zeit Temperatur Niederschläge Wind Luftdruck Luftfeuchtigkeit
    00:00 +13°C° 0 mm 1 m/S 744 mmHg 84%
    01:00 +13°C° 0 mm 1 m/S 744 mmHg 85%
    02:00 +12°C° 0 mm 1 m/S 744 mmHg 86%
    03:00 +12°C° 0 mm 1 m/S 744 mmHg 88%
    04:00 +11°C° 0 mm 1 m/S 745 mmHg 89%
    05:00 +12°C° 0 mm 1 m/S 745 mmHg 88%
    06:00 +13°C° 0 mm 1 m/S 745 mmHg 86%
    07:00 +14°C° 0 mm 2 m/S 746 mmHg 85%
    08:00 +16°C° 0.2 mm 2 m/S 746 mmHg 79%
    09:00 +17°C° 0.2 mm 2 m/S 746 mmHg 74%
    10:00 +19°C° 0.2 mm 2 m/S 746 mmHg 68%
    11:00 +19°C° 0.6 mm 2 m/S 746 mmHg 67%
    12:00 +20°C° 0.6 mm 2 m/S 745 mmHg 66%
    13:00 +21°C° 0.6 mm 3 m/S 745 mmHg 65%
    14:00 +21°C° 0.5 mm 3 m/S 745 mmHg 64%
    15:00 +21°C° 0.5 mm 3 m/S 745 mmHg 63%
    16:00 +21°C° 0.5 mm 3 m/S 745 mmHg 61%
    17:00 +20°C° 0.1 mm 2 m/S 745 mmHg 66%
    18:00 +19°C° 0.1 mm 2 m/S 745 mmHg 70%
    19:00 +19°C° 0.1 mm 2 m/S 745 mmHg 74%
    20:00 +17°C° 0.1 mm 2 m/S 746 mmHg 79%
    21:00 +16°C° 0.1 mm 2 m/S 746 mmHg 84%
    22:00 +14°C° 0.1 mm 2 m/S 746 mmHg 89%
    23:00 +14°C° 0 mm 2 m/S 746 mmHg 89%
    Mehr zeigen